Terminal Aerodrome Forecast
Issued by NWS Denver/Boulder, CO

Home | Current Version | Previous Version | Text Only | Print | Product List | Glossary On
Versions: 1 2 3 4 5 6 7 8 9 10 11 12 13 14 15 16 17 18 19 20 21 22 23 24 25 26 27 28 29 30 31 32 33 34 35 36 37 38 39 40 41 42 43 44 45 46 47 48 49 50
000
FTUS45 KBOU 080659 AAA
TAFDEN
TAF AMD
KDEN 080659Z 0807/0912 16013KT P6SM FEW040 BKN090
     FM081000 19010KT P6SM SCT090 SCT220
     FM081300 21008KT P6SM SCT220
     FM081900 VRB06KT P6SM FEW080 SCT220
     FM090100 21008KT P6SM FEW120 SCT220=

USA.gov is the U.S. government's official web portal to all federal, state and local government web resources and services.